STARLINK-34346, 64155

Orbit data source: Space-Track

STARLINK-34346, 64155 is a payload satellite owned by SpaceX/Seattle (US) in SSO that was launched on Tue, 27 May 2025 UTC via an FALCON 9 launch vehicle from the Air Force Western Test Range (AFWTR). Payload-class satellites include a variety of spacecraft equipped with specific instruments for various scientific and technological missions. These include communications satellites like Starlink; space stations such as the ISS; scientific satellites like the Hubble; Earth observation satellites from companies like Planet Labs, Umbra, and HawkEye 360; GPS; miniature CubeSats for education and research; and military/defense satellites.

Loading next visibility...
Identifier
64155, 2025-112K
Orbit
SSO
Country
Flag of USUS
Related business
Manufacturer
SpaceX/Seattle
Mission
Operational Commercial Communications
Bus & Motor
STARLINK V2MO, Unknown motor
Mass
575 kg wet, ~530 kg dry
Launch date (UTC)
2025-05-27 (1 year ago)
Launch vehicle
FALCON 9
Launch site
Air Force Western Test Range (AFWTR)
Object type
Payload
Rocket body
Debris
Shape & HBR
Box + 2 Pan, 17.7 m
Radar Cross Section
36.964 m², Large (>1 m²)

Expand to show TLE details & history
Last TLE update: 8 hours ago

TLE from 8 hours ago
0 STARLINK-34346
1 64155U 25112K   26145.39782919  .00005283  00000-0  36982-3 0  9997
2 64155  97.4458 196.8061 0002136 125.5341 234.6086 15.05657942 54859
Epoch: 2026-05-25T09:32Z
TLE epoch observation values (Epoch: 2026-05-25T09:32:52.442Z)
Latitude
0.00004°
Longitude
170.60139°
Altitude
553.414 km
Speed
7.585 km/s
True Right ascension
13h 07m 13s
True Declination
0° 00' 00"
Sunlit
Object was in full shadow at epoch
Visualization orbit readout
Latitude
Unknown
Longitude
Unknown
Altitude
Unknown
Speed
Unknown
Apparent Right ascension
Unknown
Apparent Declination
Unknown
Sunlit
N/A
Visualization observer readout
Local Sidereal Time
02:49:25
Azimuth
Unknown
Elevation
Unknown
Doppler factor
Unknown
Orbital elements
Apogee altitude
547.953 km
Perigee altitude
544.994 km
Semi-major axis
6,924.61 km
Eccentricity
0.00021
Inclination
97.4458°
RAAN
196.8061°
Arg. of periapsis
125.5341°
True anomaly
234.58865°
Mean anomaly
234.6086°
Eccentric anomaly
234.59862°
Mean motion
3.76661 °/min
Orbital period
95.58 mins
BSTAR
0.00036982
Loading maneuver chart data...
Computing Atmospheric mass density...
Loading historical data...
Loading historical data...
Loading historical data...
Loading historical data...
Loading historical data...
Loading historical data...
Loading historical data...

Documentation

Showing up to 5 results
|